Regional Weather Roundup
Issued by NWS Newport/Morehead, NC

Current Version | Previous Version | Graphics & Text | Print | Product List | Glossary On
Versions: 1 2 3 4 5 6 7 8 9 10 11 12 13 14 15 16 17 18 19 20 21 22 23 24 25 26 27 28 29 30 31 32 33 34 35 36 37 38 39 40 41 42 43 44 45 46 47 48 49 50
000 ASUS42 KMHX 300113 RWRMHX WEATHER ROUNDUP FOR EASTERN NORTH CAROLINA NATIONAL WEATHER SERVICE NEWPORT/MOREHEAD CITY NC 900 PM EDT MON JUN 29 2015 NOTE: "FAIR" INDICATES FEW OR NO CLOUDS BELOW 12,000 FEET WITH NO SIGNIFICANT WEATHER AND/OR OBSTRUCTIONS TO VISIBILITY NCZ015>017-031-032-045>047-102-103-300200- NORTH COAST CITY SKY/WX TMP DP RH WIND PRES REMARKS EDENTON N/A 78 67 69 SE5 29.96R ELIZABETH CITY PTCLDY 77 70 79 SE6 29.96R KITTY HAWK MOCLDY 76 68 76 SE3 29.96R MANTEO MOCLDY 75 69 82 SE6 29.97S $$ NCZ045>047-081-094-103-104-300200- CENTRAL COAST CITY SKY/WX TMP DP RH WIND PRES REMARKS FRISCO MOCLDY 78 72 81 S5 29.96S SWANQUARTER N/A 77 N/A N/A E3 29.91S $$ NCZ095-097-098-100-101-300200- SOUTHERN COAST CITY SKY/WX TMP DP RH WIND PRES REMARKS BEAUFORT MOCLDY 79 75 87 SW10 29.95F CEDAR ISLAND N/A 79 N/A N/A S2G8 30.00S JACKSONVILLE PTCLDY 77 72 84 S3 29.95S PINEY ISLAND MOCLDY N/A N/A N/A SW5 29.95S WILMINGTON PTCLDY 80 68 66 SW8 29.95S $$ NCZ011>013-027>030-043-044-078>080-089-090>093-098-300200- COASTAL PLAIN CITY SKY/WX TMP DP RH WIND PRES REMARKS AHOSKIE CLEAR 73 67 82 CALM 29.96R CLINTON PTCLDY 78 72 82 CALM 29.95S ELIZABETHTOWN PTCLDY 80 67 64 CALM 29.94S GOLDSBORO NOT AVBL GREENVILLE MOCLDY 81 66 61 S7 29.97R HAVELOCK PTCLDY 78 71 79 S3 29.96S KENANSVILLE PTCLDY 73 68 83 CALM 29.96R KINSTON PTCLDY 79 66 65 S6 29.96R NEW BERN PTCLDY 78 70 76 S5 29.96S RICHLANDS PTCLDY 79 70 73 S5 29.96R ROCKY MOUNT PTCLDY 77 68 73 CALM 29.95R WASHINGTON PTCLDY 78 65 64 SE3 29.95S WHITEVILLE PTCLDY 78 68 70 S3 29.95S $$ AMZ130-135-150-152-154-156-158-170-250-252-270-ANZ085-086-088-633-658-670-300200- MARINE OBSERVATIONS STATION/POSITION TIME TEMP WIND PRES WAVE SWELL AIR SEA DIR/SP/G HT/PER HT/PER (UTC) (F) (DEG/KT/KT) (MB) (FT/S) (FT/S) CHESAPEAKE LIGHT 0100 76 140/ 10/ 11 1015.4 64 E VA BEACH 0050 76 77 110/ 10/ 10 1014.5 3/ 8 3/ 8 DUCK 0000 76 68 130/ 11/ 11 1013.5 2 E DUCK 0011 74 N/A 2/ 8 OREGON INLET 0000 76 81 70/ 5/ 7 1014.6 13E OREGON INLT 0100 75 N/A 3/ 7 HATTERAS CG 0000 80 81 210/ 2/ 5 1014.3 DIAMOND BUOY 0050 79 81 290/ 6/ 8 1014.3 4/ 7 3/ 7 CAPE LOOKOUT 0100 79 230/ 8/ 10 1014.0 BEAUFORT LAB 0000 80 81 220/ 5/ 10 1013.8 30 SE NEW RVR IN 0008 80 81 220/ 14/ 16 1014.5 27 SE WRIGHTSVLE 0000 81 220/ 10/ 12 N/A 5 SE WRIGHTSVLE 0008 81 80 220/ 12/ 17 1014.1 225 S CAPE HAT 0050 78 80 270/ 12/ 16 1017.3 6/ 7 5/ 7 41 SE CHARLESTON 0050 82 83 210/ 14/ 16 1014.8 4/ 8 3/ 8 $$

USA.gov is the U.S. government's official web portal to all federal, state and local government web resources and services.